Idabel, OK

12:40 PM CDT on May 26, 2017 (GMT -0500)
Idabel

Weather History for K4O4 - April, 2013

Change the Weather History Date:

Thursday, April 4, 2013

  Actual Average (KPRX) Record (KPRX)
Temperature  
Mean Temperature 45 °F -  
Max Temperature 51 °F 69 °F 86 °F (2001)
Min Temperature 39 °F 49 °F 39 °F (2013)
Degree Days  
Heating Degree Days 20    
Moisture  
Dew Point 39 °F    
Average Humidity 85    
Maximum Humidity 93    
Minimum Humidity 66    
Precipitation  
Precipitation 0.35 in - - ()
Sea Level Pressure  
Sea Level Pressure 30.12 in    
Wind  
Wind Speed 6 mph (NNW)    
Max Wind Speed 13 mph    
Max Gust Speed 18 mph    
Visibility 9 miles    
Events      
Averages and records for this station are not official NWS values.
T = Trace of Precipitation, MM = Missing Value Source: NWS Daily Summary

Daily Weather History Graph

Daily Weather History Graph

Search for Another Location

Airport or City:

Trip Planner

Search our weather history database for the weather conditions in past years. The results will help you decide how hot, cold, wet, or windy it might be!

Date:

Astronomy

Apr. 04, 2013 Rise Set
Actual Time 7:02 AM CDT 7:42 PM CDT
Civil Twilight 6:37 AM CDT 8:07 PM CDT
Nautical Twilight 6:07 AM CDT 8:37 PM CDT
Astronomical Twilight 5:37 AM CDT 9:08 PM CDT
Moon 3:14 AM CDT (4/4) 2:16 PM CDT (4/4)
Length of Visible Light 13h 30m
Length of Day
12h 40m
Waning Crescent, 33% of the Moon is Illuminated
Apr 4
Waning Crescent
Apr 10
New
Apr 18
First Quarter
Apr 25
Full
May 2
Last Quarter

Hourly Weather History & Observations

Time (CDT) Temp. Windchill Dew Point Humidity Pressure Visibility Wind Dir Wind Speed Gust Speed Precip Events Conditions
12:15 AM 41.0 °F 39.0 °F 35.6 °F 81% 30.17 in 7.0 mi SE 3.5 mph - 0.02 in   Overcast
12:35 AM 41.0 °F 36.4 °F 35.6 °F 81% 30.16 in 10.0 mi ESE 6.9 mph - 0.04 in   Overcast
12:55 AM 41.0 °F 34.7 °F 35.6 °F 81% 30.12 in 7.0 mi East 10.4 mph - 0.06 in   Overcast
1:15 AM 41.0 °F 33.9 °F 35.6 °F 81% 30.10 in 5.0 mi ENE 12.7 mph 18.4 mph 0.05 in   Overcast
1:35 AM 41.0 °F - 35.6 °F 81% 30.10 in 7.0 mi Calm Calm - 0.08 in   Overcast
1:55 AM 39.2 °F 37.0 °F 35.6 °F 87% 30.11 in 5.0 mi East 3.5 mph - 0.11 in   Overcast
2:15 AM 39.2 °F 34.2 °F 35.6 °F 87% 30.11 in 10.0 mi East 6.9 mph - 0.02 in   Overcast
2:55 AM 39.2 °F - 35.6 °F 87% 30.12 in 10.0 mi Calm Calm - 0.05 in   Overcast
3:15 AM 41.0 °F 37.1 °F 37.4 °F 87% 30.12 in 7.0 mi West 5.8 mph - 0.02 in   Overcast
3:35 AM 41.0 °F 38.0 °F 37.4 °F 87% 30.12 in 5.0 mi WNW 4.6 mph - 0.03 in   Overcast
4:15 AM 41.0 °F 36.4 °F 37.4 °F 87% 30.11 in 10.0 mi NNW 6.9 mph - N/A   Overcast
4:35 AM 41.0 °F 36.4 °F 37.4 °F 87% 30.10 in 10.0 mi North 6.9 mph - 0.01 in   Overcast
4:55 AM 41.0 °F 38.0 °F 37.4 °F 87% 30.11 in 7.0 mi North 4.6 mph - 0.01 in   Overcast
5:15 AM 41.0 °F 35.8 °F 37.4 °F 87% 30.11 in 5.0 mi NNW 8.1 mph - N/A   Overcast
5:35 AM 41.0 °F 35.8 °F 37.4 °F 87% 30.11 in 5.0 mi NNW 8.1 mph - 0.01 in   Overcast
5:55 AM 39.2 °F 33.6 °F 37.4 °F 93% 30.11 in 5.0 mi NNW 8.1 mph - 0.01 in   Overcast
6:15 AM 39.2 °F 34.2 °F 37.4 °F 93% 30.11 in 5.0 mi NNW 6.9 mph - N/A   Overcast
7:15 AM 39.2 °F 35.0 °F 37.4 °F 93% 30.11 in 10.0 mi NNW 5.8 mph - N/A   Overcast
7:35 AM 39.2 °F 35.0 °F 37.4 °F 93% 30.12 in 10.0 mi NNW 5.8 mph - N/A   Overcast
8:15 AM 41.0 °F 35.8 °F 37.4 °F 87% 30.12 in 7.0 mi North 8.1 mph - 0.01 in   Overcast
8:35 AM 41.0 °F 35.8 °F 37.4 °F 87% 30.12 in 10.0 mi North 8.1 mph - 0.01 in   Mostly Cloudy
8:55 AM 41.0 °F 34.7 °F 37.4 °F 87% 30.12 in 10.0 mi North 10.4 mph - 0.01 in   Mostly Cloudy
9:15 AM 41.0 °F 35.8 °F 39.2 °F 93% 30.13 in 7.0 mi North 8.1 mph - N/A   Overcast
9:35 AM 41.0 °F 37.1 °F 39.2 °F 93% 30.12 in 10.0 mi North 5.8 mph - 0.01 in   Scattered Clouds
9:55 AM 42.8 °F 38.0 °F 41.0 °F 93% 30.12 in 10.0 mi North 8.1 mph - 0.01 in   Scattered Clouds
10:15 AM 42.8 °F 38.6 °F 41.0 °F 93% 30.12 in 10.0 mi North 6.9 mph - N/A   Scattered Clouds
10:35 AM 42.8 °F 38.6 °F 41.0 °F 93% 30.13 in 10.0 mi North 6.9 mph - N/A   Mostly Cloudy
10:55 AM 42.8 °F 38.6 °F 41.0 °F 93% 30.13 in 10.0 mi North 6.9 mph - N/A   Overcast
11:15 AM 44.6 °F 42.2 °F 41.0 °F 87% 30.14 in 10.0 mi North 4.6 mph - N/A   Overcast
11:35 AM 44.6 °F 40.7 °F 41.0 °F 87% 30.15 in 10.0 mi NNW 6.9 mph - N/A   Overcast
11:55 AM 44.6 °F 40.7 °F 41.0 °F 87% 30.15 in 7.0 mi NNW 6.9 mph - N/A   Mostly Cloudy
12:15 PM 44.6 °F 41.4 °F 39.2 °F 81% 30.15 in 7.0 mi NW 5.8 mph - N/A   Mostly Cloudy
12:35 PM 42.8 °F 38.6 °F 41.0 °F 93% 30.15 in 5.0 mi NW 6.9 mph - 0.02 in   Overcast
12:55 PM 42.8 °F 38.0 °F 41.0 °F 93% 30.15 in 5.0 mi NW 8.1 mph - 0.04 in   Overcast
1:15 PM 42.8 °F 37.5 °F 41.0 °F 93% 30.14 in 4.0 mi NW 9.2 mph - 0.01 in   Overcast
1:35 PM 42.8 °F 37.5 °F 41.0 °F 93% 30.14 in 7.0 mi NW 9.2 mph - 0.02 in   Overcast
1:55 PM 44.6 °F 39.7 °F 41.0 °F 87% 30.13 in 10.0 mi NW 9.2 mph - 0.02 in   Overcast
2:15 PM 44.6 °F 40.2 °F 41.0 °F 87% 30.13 in 10.0 mi NW 8.1 mph - N/A   Mostly Cloudy
2:35 PM 44.6 °F 40.7 °F 42.8 °F 93% 30.12 in 10.0 mi NNW 6.9 mph - N/A   Overcast
2:55 PM 46.4 °F 41.9 °F 42.8 °F 87% 30.11 in 10.0 mi NW 9.2 mph - N/A   Overcast
3:15 PM 46.4 °F 42.9 °F 41.0 °F 81% 30.11 in 10.0 mi North 6.9 mph - N/A   Mostly Cloudy
3:35 PM 46.4 °F 42.4 °F 42.8 °F 87% 30.10 in 10.0 mi NNW 8.1 mph - N/A   Overcast
3:55 PM 46.4 °F 42.4 °F 41.0 °F 81% 30.10 in 10.0 mi NW 8.1 mph - N/A   Overcast
4:15 PM 46.4 °F 42.9 °F 41.0 °F 81% 30.10 in 10.0 mi WNW 6.9 mph - N/A   Overcast
4:35 PM 46.4 °F 42.4 °F 41.0 °F 81% 30.10 in 10.0 mi NNW 8.1 mph - N/A   Overcast
4:55 PM 46.4 °F 42.4 °F 42.8 °F 87% 30.10 in 10.0 mi NNW 8.1 mph - N/A   Overcast
5:15 PM 48.2 °F - 41.0 °F 76% 30.10 in 10.0 mi North 10.4 mph 17.3 mph N/A   Mostly Cloudy
5:35 PM 50.0 °F - 41.0 °F 71% 30.10 in 10.0 mi North 9.2 mph - N/A   Mostly Cloudy
5:55 PM 50.0 °F - 41.0 °F 71% 30.10 in 10.0 mi NNE 4.6 mph - N/A   Mostly Cloudy
6:15 PM 48.2 °F - 41.0 °F 76% 30.10 in 10.0 mi NE 4.6 mph - N/A   Mostly Cloudy
6:35 PM 50.0 °F - 41.0 °F 71% 30.10 in 10.0 mi NNW 3.5 mph - N/A   Overcast
6:55 PM 51.8 °F - 41.0 °F 67% 30.10 in 10.0 mi NW 6.9 mph - N/A   Mostly Cloudy
7:15 PM 50.0 °F - 41.0 °F 71% 30.10 in 10.0 mi Calm Calm - N/A   Scattered Clouds
7:35 PM 50.0 °F - 39.2 °F 66% 30.10 in 10.0 mi Calm Calm - N/A   Clear
7:55 PM 46.4 °F 45.2 °F 39.2 °F 76% 30.11 in 10.0 mi West 3.5 mph - N/A   Clear
8:15 PM 44.6 °F - 39.2 °F 81% 30.11 in 10.0 mi Calm Calm - N/A   Clear
8:35 PM 44.6 °F - 39.2 °F 81% 30.11 in 10.0 mi Calm Calm - N/A   Clear
8:55 PM 42.8 °F - 37.4 °F 81% 30.12 in 10.0 mi Calm Calm - N/A   Clear
9:15 PM 42.8 °F - 37.4 °F 81% 30.12 in 10.0 mi Calm Calm - N/A   Clear
9:35 PM 42.8 °F 41.1 °F 39.2 °F 87% 30.13 in 10.0 mi SSW 3.5 mph - N/A   Clear
9:55 PM 41.0 °F 39.0 °F 37.4 °F 87% 30.14 in 10.0 mi SW 3.5 mph - N/A   Clear
10:15 PM 41.0 °F 39.0 °F 37.4 °F 87% 30.14 in 10.0 mi SW 3.5 mph - N/A   Clear
10:55 PM 41.0 °F - 37.4 °F 87% 30.14 in 10.0 mi Calm Calm - N/A   Clear
11:15 PM 41.0 °F 39.0 °F 37.4 °F 87% 30.15 in 10.0 mi WSW 3.5 mph - N/A   Clear
11:35 PM 39.2 °F 37.0 °F 37.4 °F 93% 30.15 in 10.0 mi West 3.5 mph - N/A   Clear
11:55 PM 41.0 °F 39.0 °F 37.4 °F 87% 30.15 in 10.0 mi West 3.5 mph - N/A   Clear